Pullman, WA

7:53 PM PST on December 09, 2016 (GMT -0800)
Pullman-Moscow Regional

Weather History for KPUW - August, 2013

Change the Weather History Date:

Thursday, August 29, 2013

  Actual Average Record
Temperature  
Mean Temperature 70 °F 63 °F  
Max Temperature 86 °F 79 °F 98 °F (1998)
Min Temperature 54 °F 47 °F 30 °F (1942)
Degree Days  
Heating Degree Days 0 4  
Month to date heating degree days 15 59  
Since 1 June heating degree days 229 329  
Since 1 July heating degree days 39 123  
Cooling Degree Days 5 2  
Month to date cooling degree days 111 87  
Year to date cooling degree days 261 187  
Since 1 June cooling degree days 249 182  
Growing Degree Days 20 (Base 50)    
Moisture  
Dew Point 47 °F    
Average Humidity 49    
Maximum Humidity 72    
Minimum Humidity 25    
Precipitation  
Precipitation T in 0.02 in 0.79 in (1951)
Month to date precipitation 0.45 0.59  
Year to date precipitation 8.88 10.87  
Sea Level Pressure  
Sea Level Pressure 29.95 in    
Wind  
Wind Speed 3 mph (West)    
Max Wind Speed 20 mph    
Max Gust Speed 25 mph    
Visibility 10 miles    
Events Rain , Thunderstorm    
T = Trace of Precipitation, MM = Missing Value Source: NWS Daily Summary

Daily Weather History Graph

Daily Weather History Graph

Search for Another Location

Airport or City:

Trip Planner

Search our weather history database for the weather conditions in past years. The results will help you decide how hot, cold, wet, or windy it might be!

Date:

Astronomy

Aug. 29, 2013 Rise Set
Actual Time 6:04 AM PDT 7:32 PM PDT
Civil Twilight 5:33 AM PDT 8:04 PM PDT
Nautical Twilight 4:54 AM PDT 8:42 PM PDT
Astronomical Twilight 4:13 AM PDT 9:23 PM PDT
Moon No Moon Rise 3:16 PM PDT (8/29)
Length of Visible Light 14h 31m
Length of Day
13h 28m
Last Quarter, 37% of the Moon is Illuminated
Aug 29
Last Quarter
Sep 5
New
Sep 12
First Quarter
Sep 19
Full
Sep 26
Last Quarter

Hourly Weather History & Observations

Time (PDT) Temp. Dew Point Humidity Pressure Visibility Wind Dir Wind Speed Gust Speed Precip Events Conditions
12:53 AM 55.0 °F 43.0 °F 64% 29.89 in 10.0 mi Calm Calm - N/A   Clear
1:53 AM 57.0 °F 43.0 °F 59% 29.88 in 10.0 mi Calm Calm - N/A   Clear
2:53 AM 59.0 °F 45.0 °F 60% 29.86 in 10.0 mi Calm Calm - N/A   Clear
3:53 AM 62.1 °F 45.0 °F 53% 29.86 in 10.0 mi Calm Calm - N/A   Clear
4:53 AM 59.0 °F 46.0 °F 62% 29.86 in 10.0 mi Calm Calm - N/A   Clear
5:53 AM 61.0 °F 48.0 °F 62% 29.86 in 10.0 mi Calm Calm - N/A   Clear
6:53 AM 64.9 °F 50.0 °F 58% 29.88 in 10.0 mi Calm Calm - N/A   Clear
7:53 AM 66.9 °F 51.1 °F 57% 29.90 in 10.0 mi Calm Calm - N/A   Clear
8:53 AM 73.0 °F 51.1 °F 46% 29.91 in 10.0 mi Calm Calm - N/A   Clear
9:53 AM 75.0 °F 48.0 °F 38% 29.91 in 10.0 mi SSE 9.2 mph - N/A   Clear
10:53 AM 75.9 °F 46.9 °F 36% 29.93 in 10.0 mi Calm Calm - 0.00 in   Scattered Clouds
11:53 AM 78.1 °F 48.0 °F 35% 29.94 in 10.0 mi Calm Calm - N/A   Mostly Cloudy
12:49 PM 75.2 °F 46.4 °F 36% 29.99 in 10.0 mi West 10.4 mph - 0.00 in Thunderstorm Mostly Cloudy
12:53 PM 75.0 °F 46.0 °F 36% 29.96 in 10.0 mi West 6.9 mph - 0.00 in Rain , Thunderstorm Light Rain
1:04 PM 73.4 °F 48.2 °F 41% 30.00 in 10.0 mi West 6.9 mph - 0.00 in Rain Light Rain
1:53 PM 77.0 °F 48.9 °F 37% 29.99 in 10.0 mi WSW 9.2 mph - 0.00 in   Clear
2:53 PM 80.1 °F 46.9 °F 31% 29.97 in 10.0 mi West 6.9 mph - N/A   Clear
3:53 PM 84.9 °F 45.0 °F 25% 29.96 in 10.0 mi West 15.0 mph 25.3 mph N/A   Clear
4:53 PM 82.9 °F 46.9 °F 28% 29.97 in 10.0 mi West 13.8 mph 24.2 mph N/A   Clear
5:53 PM 82.0 °F 46.9 °F 29% 29.97 in 10.0 mi West 8.1 mph 16.1 mph N/A   Clear
6:53 PM 79.0 °F 46.9 °F 32% 29.97 in 10.0 mi WNW 4.6 mph - N/A   Clear
7:53 PM 73.9 °F 46.9 °F 38% 29.99 in 10.0 mi North 3.5 mph - N/A   Clear
8:53 PM 64.9 °F 46.9 °F 52% 30.02 in 10.0 mi Calm Calm - N/A   Clear
9:53 PM 62.1 °F 46.0 °F 56% 30.04 in 9.0 mi Calm Calm - N/A   Clear
10:53 PM 59.0 °F 46.0 °F 62% 30.05 in 10.0 mi Calm Calm - N/A   Clear
11:53 PM 55.9 °F 46.0 °F 69% 30.06 in 10.0 mi Calm Calm - N/A   Scattered Clouds